• In Deutschland
  • Länderverzeichnis
  • Für 7 Tage
  • Wassertemperatur
  • Satellitenkarten
  • Wetterkarte
  • Widgets
  • user-avatar
    Anmelden

    Stündliche Wetter Julara

    Heute, 25 Mai, Donnerstag

    Zeit Temperatur Niederschläge Wind Luftdruck Luftfeuchtigkeit
    00:00 +21°C° 0 mm 5 m/S 721 mmHg 37%
    01:00 +21°C° 0 mm 5 m/S 721 mmHg 37%
    02:00 +21°C° 0 mm 5 m/S 721 mmHg 38%
    03:00 +20°C° 0 mm 5 m/S 721 mmHg 39%
    04:00 +20°C° 0 mm 5 m/S 721 mmHg 39%
    05:00 +20°C° 0 mm 5 m/S 721 mmHg 39%
    06:00 +19°C° 0 mm 5 m/S 721 mmHg 40%
    07:00 +20°C° 0,1 mm 4 m/S 721 mmHg 38%
    08:00 +20°C° 0,1 mm 4 m/S 721 mmHg 37%
    09:00 +21°C° 0,1 mm 4 m/S 722 mmHg 35%
    10:00 +22°C° 0 mm 3 m/S 722 mmHg 33%
    11:00 +25°C° 0 mm 2 m/S 721 mmHg 30%
    12:00 +26°C° 0 mm 2 m/S 721 mmHg 27%
    13:00 +27°C° 0 mm 2 m/S 721 mmHg 27%
    14:00 +27°C° 0 mm 2 m/S 721 mmHg 27%
    15:00 +28°C° 0 mm 2 m/S 720 mmHg 27%
    16:00 +26°C° 0 mm 3 m/S 720 mmHg 31%
    17:00 +25°C° 0 mm 4 m/S 720 mmHg 35%
    18:00 +23°C° 0 mm 5 m/S 720 mmHg 39%
    19:00 +22°C° 0 mm 4 m/S 720 mmHg 43%
    20:00 +21°C° 0 mm 4 m/S 721 mmHg 46%
    21:00 +20°C° 0 mm 4 m/S 721 mmHg 49%
    22:00 +20°C° 0 mm 3 m/S 721 mmHg 50%
    23:00 +19°C° 0 mm 3 m/S 721 mmHg 52%

    Morgen, 26 Mai, Freitag

    Zeit Temperatur Niederschläge Wind Luftdruck Luftfeuchtigkeit
    00:00 +18°C° 0 mm 3 m/S 721 mmHg 53%
    01:00 +18°C° 0 mm 3 m/S 721 mmHg 53%
    02:00 +18°C° 0 mm 3 m/S 720 mmHg 53%
    03:00 +17°C° 0 mm 3 m/S 720 mmHg 53%
    04:00 +17°C° 0 mm 3 m/S 720 mmHg 53%
    05:00 +17°C° 0 mm 3 m/S 720 mmHg 52%
    06:00 +17°C° 0 mm 3 m/S 720 mmHg 51%
    07:00 +18°C° 0 mm 3 m/S 721 mmHg 46%
    08:00 +19°C° 0 mm 3 m/S 721 mmHg 41%
    09:00 +20°C° 0 mm 3 m/S 721 mmHg 36%
    10:00 +21°C° 0,1 mm 3 m/S 721 mmHg 33%
    11:00 +24°C° 0,1 mm 3 m/S 721 mmHg 30%
    12:00 +26°C° 0,1 mm 4 m/S 720 mmHg 26%
    13:00 +27°C° 0,1 mm 4 m/S 720 mmHg 25%
    14:00 +28°C° 0,1 mm 5 m/S 719 mmHg 24%
    15:00 +28°C° 0,1 mm 5 m/S 719 mmHg 23%
    16:00 +27°C° 0 mm 4 m/S 719 mmHg 26%
    17:00 +26°C° 0 mm 3 m/S 718 mmHg 28%
    18:00 +25°C° 0 mm 2 m/S 718 mmHg 31%
    19:00 +24°C° 0 mm 2 m/S 719 mmHg 33%
    20:00 +22°C° 0 mm 3 m/S 719 mmHg 35%
    21:00 +22°C° 0 mm 3 m/S 720 mmHg 37%
    22:00 +21°C° 0 mm 3 m/S 720 mmHg 40%
    23:00 +21°C° 0 mm 3 m/S 720 mmHg 43%

    übermorgen, 27 Mai, Samstag

    Zeit Temperatur Niederschläge Wind Luftdruck Luftfeuchtigkeit
    00:00 +20°C° 0 mm 4 m/S 720 mmHg 46%
    01:00 +19°C° 0,2 mm 4 m/S 720 mmHg 48%
    02:00 +19°C° 0,2 mm 4 m/S 720 mmHg 50%
    03:00 +18°C° 0,2 mm 4 m/S 719 mmHg 52%
    04:00 +18°C° 0,2 mm 3 m/S 720 mmHg 52%
    05:00 +17°C° 0,2 mm 3 m/S 720 mmHg 52%
    06:00 +17°C° 0,2 mm 3 m/S 720 mmHg 52%
    07:00 +18°C° 0 mm 3 m/S 720 mmHg 45%
    08:00 +19°C° 0 mm 3 m/S 721 mmHg 39%
    09:00 +20°C° 0 mm 3 m/S 721 mmHg 32%
    10:00 +21°C° 0 mm 2 m/S 721 mmHg 30%
    11:00 +23°C° 0 mm 2 m/S 721 mmHg 28%
    12:00 +24°C° 0 mm 2 m/S 721 mmHg 26%
    13:00 +24°C° 0 mm 1 m/S 720 mmHg 26%
    14:00 +25°C° 0 mm 1 m/S 720 mmHg 26%
    15:00 +25°C° 0 mm 1 m/S 720 mmHg 26%
    16:00 +24°C° 0 mm 1 m/S 720 mmHg 28%
    17:00 +23°C° 0 mm 1 m/S 720 mmHg 30%
    18:00 +22°C° 0 mm 1 m/S 720 mmHg 33%
    19:00 +22°C° 0 mm 1 m/S 720 mmHg 32%
    20:00 +20°C° 0 mm 2 m/S 721 mmHg 32%
    21:00 +20°C° 0 mm 2 m/S 721 mmHg 32%
    22:00 +19°C° 0 mm 2 m/S 721 mmHg 32%
    23:00 +19°C° 0 mm 2 m/S 721 mmHg 32%

    28 Mai, Sonntag

    Zeit Temperatur Niederschläge Wind Luftdruck Luftfeuchtigkeit
    00:00 +18°C° 0 mm 3 m/S 721 mmHg 32%
    01:00 +17°C° 0 mm 2 m/S 721 mmHg 32%
    02:00 +17°C° 0 mm 2 m/S 721 mmHg 32%
    03:00 +16°C° 0 mm 2 m/S 721 mmHg 32%
    04:00 +16°C° 0 mm 2 m/S 721 mmHg 32%
    05:00 +16°C° 0 mm 2 m/S 721 mmHg 32%
    06:00 +15°C° 0 mm 2 m/S 721 mmHg 32%
    07:00 +17°C° 0 mm 3 m/S 722 mmHg 30%
    08:00 +18°C° 0 mm 3 m/S 723 mmHg 28%
    09:00 +19°C° 0 mm 3 m/S 723 mmHg 26%
    10:00 +20°C° 0 mm 3 m/S 723 mmHg 24%
    11:00 +22°C° 0 mm 4 m/S 723 mmHg 22%
    12:00 +23°C° 0 mm 4 m/S 723 mmHg 20%
    13:00 +25°C° 0 mm 3 m/S 722 mmHg 20%
    14:00 +25°C° 0 mm 3 m/S 722 mmHg 19%
    15:00 +25°C° 0 mm 3 m/S 721 mmHg 19%
    16:00 +24°C° 0 mm 3 m/S 721 mmHg 21%
    17:00 +22°C° 0 mm 3 m/S 722 mmHg 23%
    18:00 +22°C° 0 mm 3 m/S 722 mmHg 25%
    19:00 +21°C° 0 mm 3 m/S 722 mmHg 27%
    20:00 +20°C° 0 mm 4 m/S 723 mmHg 29%
    21:00 +19°C° 0 mm 5 m/S 724 mmHg 32%
    22:00 +17°C° 0 mm 5 m/S 724 mmHg 35%
    23:00 +17°C° 0 mm 5 m/S 724 mmHg 39%

    29 Mai, Montag

    Zeit Temperatur Niederschläge Wind Luftdruck Luftfeuchtigkeit
    00:00 +16°C° 0 mm 5 m/S 723 mmHg 42%
    01:00 +16°C° 0 mm 5 m/S 723 mmHg 46%
    02:00 +15°C° 0 mm 5 m/S 723 mmHg 50%
    03:00 +14°C° 0 mm 4 m/S 723 mmHg 54%
    04:00 +14°C° 0 mm 4 m/S 723 mmHg 57%
    05:00 +13°C° 0 mm 4 m/S 723 mmHg 60%
    06:00 +13°C° 0 mm 4 m/S 723 mmHg 63%
    07:00 +13°C° 0 mm 5 m/S 724 mmHg 60%
    08:00 +14°C° 0 mm 5 m/S 724 mmHg 57%
    09:00 +15°C° 0 mm 6 m/S 725 mmHg 55%
    10:00 +16°C° 0 mm 6 m/S 724 mmHg 50%
    11:00 +17°C° 0 mm 5 m/S 724 mmHg 44%
    12:00 +20°C° 0 mm 5 m/S 724 mmHg 39%
    13:00 +20°C° 0 mm 5 m/S 723 mmHg 37%
    14:00 +21°C° 0 mm 4 m/S 723 mmHg 35%
    15:00 +22°C° 0 mm 3 m/S 722 mmHg 32%
    16:00 +21°C° 0 mm 3 m/S 722 mmHg 34%
    17:00 +20°C° 0 mm 3 m/S 723 mmHg 36%
    18:00 +19°C° 0 mm 3 m/S 723 mmHg 38%
    19:00 +18°C° 0 mm 3 m/S 723 mmHg 40%
    20:00 +18°C° 0 mm 3 m/S 724 mmHg 42%
    21:00 +17°C° 0 mm 3 m/S 724 mmHg 43%
    22:00 +17°C° 0 mm 3 m/S 724 mmHg 45%
    23:00 +16°C° 0 mm 3 m/S 724 mmHg 47%

    30 Mai, Dienstag

    Zeit Temperatur Niederschläge Wind Luftdruck Luftfeuchtigkeit
    00:00 +14°C° 0 mm 4 m/S 724 mmHg 49%
    01:00 +14°C° 0 mm 4 m/S 724 mmHg 51%
    02:00 +13°C° 0 mm 4 m/S 724 mmHg 54%
    03:00 +13°C° 0 mm 4 m/S 723 mmHg 56%
    04:00 +12°C° 0 mm 3 m/S 724 mmHg 58%
    05:00 +12°C° 0 mm 3 m/S 724 mmHg 60%
    06:00 +11°C° 0 mm 3 m/S 724 mmHg 62%
    07:00 +12°C° 0 mm 3 m/S 725 mmHg 58%
    08:00 +13°C° 0 mm 4 m/S 725 mmHg 54%
    09:00 +14°C° 0 mm 4 m/S 726 mmHg 51%
    10:00 +15°C° 0 mm 4 m/S 725 mmHg 46%
    11:00 +17°C° 0 mm 5 m/S 725 mmHg 42%
    12:00 +19°C° 0 mm 5 m/S 725 mmHg 38%
    13:00 +20°C° 0 mm 5 m/S 725 mmHg 35%
    14:00 +20°C° 0 mm 6 m/S 724 mmHg 33%
    15:00 +20°C° 0 mm 6 m/S 724 mmHg 30%
    16:00 +19°C° 0 mm 6 m/S 724 mmHg 32%
    17:00 +17°C° 0 mm 5 m/S 724 mmHg 34%
    18:00 +16°C° 0 mm 5 m/S 724 mmHg 37%
    19:00 +16°C° 0 mm 5 m/S 725 mmHg 38%
    20:00 +15°C° 0 mm 5 m/S 725 mmHg 40%
    21:00 +15°C° 0 mm 5 m/S 725 mmHg 42%
    22:00 +14°C° 0 mm 5 m/S 725 mmHg 44%
    23:00 +14°C° 0 mm 5 m/S 725 mmHg 46%
    Mehr zeigen